Mumbai, India

3:10 PM IST on March 24, 2017 (GMT +0530)
Chhatrapati Shivaji International

Weather History for VABB - March, 2013

Change the Weather History Date:

Sunday, March 3, 2013

  Actual Average Record
Temperature  
Mean Temperature 82 °F -  
Max Temperature 102 °F 89 °F 102 °F (2004)
Min Temperature 61 °F 71 °F 59 °F (2015)
Cooling Degree Days 16    
Growing Degree Days 32 (Base 50)    
Moisture  
Dew Point 49 °F    
Average Humidity 32    
Maximum Humidity 70    
Minimum Humidity 8    
Precipitation  
Precipitation 0.00 in - - ()
Sea Level Pressure  
Sea Level Pressure 29.89 in    
Wind  
Wind Speed 3 mph ()    
Max Wind Speed 14 mph    
Max Gust Speed -    
Visibility 2.0 miles    
Events      
Averages and records for this station are not official NWS values.
T = Trace of Precipitation, MM = Missing Value Source: Averaged Metar Reports

Daily Weather History Graph

Daily Weather History Graph

Search for Another Location

Airport or City:

Trip Planner

Search our weather history database for the weather conditions in past years. The results will help you decide how hot, cold, wet, or windy it might be!

Date:

Astronomy

Mar. 03, 2013 Rise Set
Actual Time 6:56 AM IST 6:44 PM IST
Civil Twilight 6:34 AM IST 7:06 PM IST
Nautical Twilight 6:09 AM IST 7:32 PM IST
Astronomical Twilight 5:43 AM IST 7:57 PM IST
Moon 12:05 AM IST (3/4) 10:40 AM IST (3/3)
Length of Visible Light 12h 32m
Length of Day
11h 48m
Waning Gibbous, 68% of the Moon is Illuminated
Mar 3
Waning Gibbous
Mar 5
Last Quarter
Mar 12
New
Mar 19
First Quarter
Mar 27
Full

Hourly Weather History & Observations

Time (IST) Temp. Heat Index Dew Point Humidity Pressure Visibility Wind Dir Wind Speed Gust Speed Precip Events Conditions
12:10 AM 78.8 °F - 59.0 °F 51% 29.92 in 1.6 mi Calm Calm - N/A   Smoke
12:40 AM 80.6 °F 81.5 °F 60.8 °F 51% 29.92 in 1.4 mi Calm Calm - N/A   Smoke
1:10 AM 77.0 °F - 60.8 °F 57% 29.92 in 1.4 mi Calm Calm - N/A   Smoke
1:40 AM 77.0 °F - 60.8 °F 57% 29.89 in 1.3 mi Calm Calm - N/A   Smoke
2:10 AM 75.2 °F - 60.8 °F 61% 29.89 in 1.3 mi Calm Calm - N/A   Smoke
2:30 AM 69 °F - 61 °F 70% 29.89 in 1 mi Calm Calm - -   Haze
2:40 AM 77.0 °F - 62.6 °F 61% 29.89 in 1.3 mi SSE 3.5 mph - N/A   Smoke
3:10 AM 75.2 °F - 60.8 °F 61% 29.86 in 1.3 mi ENE 3.5 mph - N/A   Smoke
3:40 AM 77.0 °F - 59.0 °F 54% 29.86 in 1.3 mi ESE 3.5 mph - N/A   Smoke
4:10 AM 78.8 °F - 57.2 °F 47% 29.86 in 1.4 mi Calm Calm - N/A   Smoke
4:40 AM 75.2 °F - 57.2 °F 53% 29.86 in 1.4 mi Calm Calm - N/A   Smoke
5:10 AM 75.2 °F - 55.4 °F 50% 29.86 in 1.4 mi Calm Calm - N/A   Smoke
5:30 AM 65 °F - 57 °F 69% 29.87 in 1 mi Calm Calm - -   Haze
5:40 AM 75.2 °F - 53.6 °F 47% 29.89 in 1.6 mi Calm Calm - N/A   Smoke
6:40 AM 75.2 °F - 53.6 °F 47% 29.89 in 1.9 mi Calm Calm - N/A   Smoke
7:10 AM 73.4 °F - 55.4 °F 53% 29.92 in 1.6 mi Calm Calm - N/A   Smoke
7:40 AM 75.2 °F - 55.4 °F 50% 29.92 in 1.1 mi Calm Calm - N/A   Smoke
8:10 AM 80.6 °F 80.3 °F 53.6 °F 39% 29.92 in 1.3 mi Calm Calm - N/A   Smoke
8:30 AM 67 °F - 56 °F 60% 29.94 in 1 mi Calm Calm - -   Smoke
9:10 AM 87.8 °F - 44.6 °F 22% 29.95 in 1.6 mi East 3.5 mph - N/A   Smoke
10:10 AM 93.2 °F - 41.0 °F 16% 29.95 in 2.2 mi ENE 8.1 mph - N/A   Smoke
10:40 AM 95.0 °F - 41.0 °F 15% 29.95 in 2.2 mi NE 9.2 mph - N/A   Smoke
11:10 AM 95.0 °F - 35.6 °F 12% 29.95 in 2.2 mi ENE 8.1 mph - N/A   Smoke
11:30 AM 97 °F - 42 °F 8% 29.96 in 1 mi NE 4.6 mph - -  
11:40 AM 96.8 °F - 35.6 °F 12% 29.95 in 2.2 mi East 9.2 mph - N/A   Smoke
12:10 PM 98.6 °F - 37.4 °F 12% 29.92 in 2.5 mi East 10.4 mph - N/A   Smoke
12:40 PM 100.4 °F - 35.6 °F 11% 29.92 in 2.8 mi ESE 10.4 mph - N/A   Smoke
1:10 PM 100.4 °F 98.4 °F 53.6 °F 21% 29.89 in 2.8 mi WNW 8.1 mph - N/A   Smoke
1:40 PM 96.8 °F 94.4 °F 53.6 °F 23% 29.89 in 2.8 mi West 13.8 mph - N/A   Smoke
2:30 PM 97 °F - 57 °F 17% 29.86 in 1 mi NW 6.9 mph - -   Smoke
2:40 PM 96.8 °F - 48.2 °F 19% 29.86 in 3.1 mi West 13.8 mph - N/A   Smoke
3:10 PM 95.0 °F - 44.6 °F 18% 29.83 in 3.1 mi West 13.8 mph - N/A   Smoke
3:40 PM 93.2 °F - 46.4 °F 20% 29.83 in 3.1 mi WNW 12.7 mph - N/A   Smoke
4:10 PM 93.2 °F - 48.2 °F 21% 29.83 in 3.1 mi WNW 10.4 mph - N/A   Smoke
4:40 PM 93.2 °F - 48.2 °F 21% 29.83 in 3.1 mi WNW 9.2 mph - N/A   Smoke
5:10 PM 91.4 °F - 44.6 °F 20% 29.83 in 3.1 mi WNW 11.5 mph - N/A   Smoke
5:30 PM 91 °F - 43 °F 11% 29.83 in 2 mi NW 6.9 mph - -   Smoke
5:40 PM 91.4 °F - 44.6 °F 20% 29.83 in 3.1 mi WNW 10.4 mph - N/A   Smoke
6:10 PM 91.4 °F - 42.8 °F 18% 29.83 in 3.1 mi NW 9.2 mph - N/A   Smoke
6:40 PM 89.6 °F - 42.8 °F 20% 29.86 in 3.1 mi NW 8.1 mph - N/A   Smoke
7:10 PM 87.8 °F - 42.8 °F 21% 29.86 in 2.5 mi NW 6.9 mph - N/A   Smoke
7:40 PM 87.8 °F - 44.6 °F 22% 29.89 in 2.5 mi NW 6.9 mph - N/A   Smoke
8:10 PM 87.8 °F - 41.0 °F 19% 29.89 in 2.5 mi NNW 9.2 mph - N/A   Smoke
8:30 PM 86 °F - 38 °F 10% 29.89 in 1 mi North 5.8 mph - -   Smoke
8:40 PM 87.8 °F - 42.8 °F 21% 29.89 in 2.5 mi NNW 6.9 mph - N/A   Smoke
9:10 PM 87.8 °F - 42.8 °F 21% 29.92 in 2.2 mi North 5.8 mph - N/A   Smoke
9:40 PM 87.8 °F - 42.8 °F 21% 29.92 in 2.2 mi North 3.5 mph - N/A   Smoke
10:10 PM 86.0 °F - 39.2 °F 19% 29.92 in 2.2 mi Calm Calm - N/A   Smoke
10:40 PM 86.0 °F - 42.8 °F 22% 29.92 in 2.5 mi Calm Calm - N/A   Smoke
11:10 PM 84.2 °F - 35.6 °F 18% 29.92 in 2.5 mi NNW 4.6 mph - N/A   Smoke
11:30 PM 73 °F - 56 °F 45% 29.93 in 1 mi North 4.6 mph - -   Smoke
11:40 PM 84.2 °F - 37.4 °F 19% 29.92 in 2.5 mi Calm Calm - N/A   Smoke